TimeEDT,TemperatureF,Dew PointF,Humidity,Sea Level PressureIn,VisibilityMPH,Wind Direction,Wind SpeedMPH,Gust SpeedMPH,PrecipitationIn,Events,Conditions,WindDirDegrees,DateUTC
12:51 AM,61.0,59.0,93,30.03,10.0,Calm,Calm,-,N/A,,Clear,0,2012-09-22 04:51:00
1:51 AM,61.0,59.0,93,30.03,10.0,Calm,Calm,-,N/A,,Clear,0,2012-09-22 05:51:00
2:51 AM,62.1,59.0,90,30.02,10.0,WNW,3.5,-,N/A,,Clear,290,2012-09-22 06:51:00
3:51 AM,62.1,59.0,90,30.02,10.0,NW,3.5,-,N/A,,Clear,310,2012-09-22 07:51:00
4:51 AM,61.0,57.9,90,30.02,10.0,Calm,Calm,-,N/A,,Clear,0,2012-09-22 08:51:00
5:51 AM,61.0,57.9,90,30.02,10.0,Calm,Calm,-,N/A,,Clear,0,2012-09-22 09:51:00
6:51 AM,62.1,59.0,90,30.04,10.0,Calm,Calm,-,N/A,,Clear,0,2012-09-22 10:51:00
7:51 AM,68.0,64.9,90,30.05,10.0,Calm,Calm,-,N/A,,Clear,0,2012-09-22 11:51:00
8:51 AM,73.0,66.0,79,30.04,10.0,WNW,3.5,-,N/A,,Clear,290,2012-09-22 12:51:00
9:51 AM,75.0,66.0,73,30.04,10.0,Variable,3.5,-,N/A,,Clear,0,2012-09-22 13:51:00
10:51 AM,75.9,64.0,67,30.04,10.0,West,4.6,-,N/A,,Clear,280,2012-09-22 14:51:00
11:51 AM,78.1,62.1,58,30.04,10.0,Variable,4.6,-,N/A,,Clear,0,2012-09-22 15:51:00
12:51 PM,78.1,62.1,58,30.02,10.0,WSW,6.9,-,N/A,,Clear,250,2012-09-22 16:51:00
1:51 PM,78.1,63.0,60,30.01,10.0,SW,5.8,-,N/A,,Clear,220,2012-09-22 17:51:00
2:51 PM,79.0,63.0,58,29.99,10.0,SSW,9.2,-,N/A,,Clear,210,2012-09-22 18:51:00
3:51 PM,78.1,64.0,62,29.98,10.0,SSW,8.1,-,N/A,,Clear,200,2012-09-22 19:51:00
4:51 PM,77.0,64.0,64,29.96,10.0,SSW,11.5,-,N/A,,Clear,200,2012-09-22 20:51:00
5:51 PM,78.1,64.0,62,29.96,10.0,SSW,11.5,-,N/A,,Clear,210,2012-09-22 21:51:00
6:51 PM,75.9,66.0,71,29.97,10.0,SSW,11.5,-,N/A,,Clear,210,2012-09-22 22:51:00
7:51 PM,75.9,66.0,71,29.97,10.0,SW,10.4,18.4,N/A,,Clear,220,2012-09-22 23:51:00
8:51 PM,75.9,66.9,74,29.97,10.0,SW,10.4,-,N/A,,Clear,220,2012-09-23 00:51:00
9:51 PM,75.9,66.9,74,29.97,10.0,WSW,9.2,-,N/A,,Clear,240,2012-09-23 01:51:00
10:51 PM,75.9,68.0,76,29.97,10.0,WSW,10.4,-,N/A,,Clear,240,2012-09-23 02:51:00
11:51 PM,75.0,68.0,79,29.99,10.0,West,6.9,-,N/A,,Clear,260,2012-09-23 03:51:00